Regional Weather Roundup
Issued by NWS

Home | Current Version | Previous Version | Text Only | Print | Product List | Glossary Off
Versions: 1 2 3 4 5 6 7 8 9 10 11 12 13 14 15 16 17 18 19 20 21 22 23 24 25 26 27

000
ASUS45 KCYS 281910
RWRWY

WYOMING REGIONAL WEATHER ROUNDUP
NATIONAL WEATHER SERVICE CHEYENNE WY
100 PM MDT SUN MAY 28 2017

NOTE:  "FAIR" INDICATES FEW OR NO CLOUDS BELOW 12,000 FEET
WITH NO SIGNIFICANT WEATHER AND/OR OBSTRUCTIONS TO VISIBILITY.

WYZ001-282000-
YELLOWSTONE NATIONAL PARK

CITY           SKY/WX    TMP DP  RH WIND       PRES   REMARKS
LK YELLOWSTONE   N/A     51  37  58 VRB6      30.41F
W YELLOWSTONE  NOT AVBL

$$
WYZ002>013-054>058-071-098>099-282000-
NORTHERN WYOMING

CITY           SKY/WX    TMP DP  RH WIND       PRES   REMARKS
JACKSON        MOSUNNY   55  28  35 CALM      30.34F
CODY           FAIR      68  35  29 VRB6      30.27F
GREYBULL       FAIR      73  34  23 MISG      30.19F
WORLAND        FAIR      72  40  31 NE8       30.21F
SHERIDAN       FAIR      70  42  36 NW18      30.18F
BUFFALO        FAIR      66  40  38 N21G28    30.23F
GILLETTE       FAIR      69  42  37 NW23G33   30.15F
HULETT         LGT RAIN  63  45  51 N12       30.14F
NEWCASTLE      FAIR      66  36  32 NW18G32   30.15S

$$
WYZ014>020-022>026-101>103-282000-
CENTRAL WYOMING

CITY           SKY/WX    TMP DP  RH WIND       PRES   REMARKS
BIG PINEY      FAIR      61  27  27 NW6       30.36F
PINEDALE       FAIR      61  23  23 W6        30.36F
DUBOIS         FAIR      59  27  29 NW10      30.32F
LANDER         FAIR      67  35  30 SE3       30.26F
RIVERTON       FAIR      67  31  26 CALM      30.27F
CASPER         PTSUNNY   66  34  30 W21G26    30.23F
DOUGLAS        FAIR      70  37  29 NW17G23   30.21F

$$
WYZ021-027>030-104>119-282000-
SOUTHERN WYOMING

CITY           SKY/WX    TMP DP  RH WIND       PRES   REMARKS
EVANSTON       FAIR      60  30  32 S5        30.35F
KEMMERER         N/A     57  27  30 SW6       30.37F
FORT BRIDGER   FAIR      63  27  25 N3        30.38S
ROCK SPRINGS   FAIR      62  27  26 VRB3      30.34F
DIXON            N/A     63  30  28 W5        30.36F
RAWLINS        FAIR      61  25  25 VRB6      30.33F
SARATOGA       MOCLDY    59  30  33 W6        30.35F
LARAMIE        PTSUNNY   57  29  34 NW12G25   30.32S
CHEYENNE       FAIR      63  30  28 NW17      30.27F
TORRINGTON     FAIR      71  36  27 NW16G22   30.16F
PINE BLUFFS    FAIR      68  32  26 N10G21    30.24S

$$




USA.gov is the U.S. government's official web portal to all federal, state and local government web resources and services.